FW93366 Weather Reports


Display with metric or nautical units.
time (UTC)temp
F
wind
direction
speed
MPH
gust
MPH
rain 1hr
in
rain 24hr
in
rain mn
in
humidity
%
barometer
mb
20260906031556 64 209 6.0 14.0 0.00 0.00 0.00 43 1015.4
20260906030053 64 167 5.0 12.0 0.00 0.00 0.00 43 1015.3
20260906024559 66 204 7.0 16.0 0.00 0.00 0.00 39 1015.1
20260906023048 66 126 9.0 20.0 0.00 0.00 0.00 36 1015.1
20260906021559 67 168 8.0 20.0 0.00 0.00 0.00 37 1015.3
20260906020055 68 156 8.0 18.0 0.00 0.00 0.00 36 1015.3
20260906014600 69 169 4.0 11.0 0.00 0.00 0.00 35 1015.6
20260906013051 70 133 5.0 16.0 0.00 0.00 0.00 33 1015.6
20260906011548 71 190 4.0 15.0 0.00 0.00 0.00 34 1015.6
20260906010047 72 179 5.0 17.0 0.00 0.00 0.00 33 1015.6
20260906004600 72 153 3.0 17.0 0.00 0.00 0.00 33 1015.6
20260906003108 72 180 6.0 18.0 0.00 0.00 0.00 31 1015.6
20260906001549 73 163 6.0 17.0 0.00 0.00 0.00 31 1015.6
20260906000104 73 144 5.0 22.0 0.00 0.00 0.00 31 1015.2
20260905234603 72 147 9.0 21.0 0.00 0.00 0.00 30 1015.2
20260905233046 73 172 7.0 17.0 0.00 0.00 0.00 31 1015.0
20260905231546 72 162 9.0 21.0 0.00 0.00 0.00 32 1015.1
20260905230053 72 169 10.0 23.0 0.00 0.00 0.00 30 1015.1
20260905224549 73 143 10.0 24.0 0.00 0.00 0.00 29 1015.2
20260905223057 74 197 11.0 20.0 0.00 0.00 0.00 29 1015.3
20260905221547 73 171 11.0 24.0 0.00 0.00 0.00 29 1015.5
20260905220100 74 193 7.0 17.0 0.00 0.00 0.00 29 1015.6
20260905214552 73 190 10.0 19.0 0.00 0.00 0.00 27 1015.6
20260905213047 73 209 8.0 19.0 0.00 0.00 0.00 28 1015.5
20260905211547 72 254 9.0 23.0 0.00 0.00 0.00 27 1015.6
20260905210055 73 196 8.0 20.0 0.00 0.00 0.00 27 1015.7
20260905204559 72 182 6.0 16.0 0.00 0.00 0.00 29 1015.7
20260905203059 72 163 10.0 26.0 0.00 0.00 0.00 29 1015.7
20260905201555 72 238 9.0 20.0 0.00 0.00 0.00 30 1015.8
20260905200105 72 211 11.0 24.0 0.00 0.00 0.00 30 1015.6
20260905194551 71 188 10.0 27.0 0.00 0.00 0.00 32 1015.8
20260905193106 71 232 11.0 25.0 0.00 0.00 0.00 31 1015.9
20260905191600 71 198 9.0 21.0 0.00 0.00 0.00 32 1016.1
20260905184558 70 196 6.0 16.0 0.00 0.00 0.00 33 1016.5
20260905183050 69 292 0.0 5.0 0.00 0.00 0.00 41 1016.7
20260905181601 68 177 1.0 6.0 0.00 0.00 0.00 42 1016.8
20260905180100 67 0 1.0 4.0 0.00 0.00 0.00 45 1016.8
20260905174549 66 213 2.0 6.0 0.00 0.00 0.00 43 1017.1
20260905173056 67 0 0.0 1.0 0.00 0.00 0.00 44 1017.2
20260905171552 64 0 0.0 3.0 0.00 0.00 0.00 47 1017.4
20260905170100 63 236 0.0 3.0 0.00 0.00 0.00 50 1017.3
20260905164550 63 15 0.0 4.0 0.00 0.00 0.00 50 1017.4
20260905163052 61 0 0.0 0.0 0.00 0.00 0.00 53 1017.5
20260905161551 58 0 0.0 0.0 0.00 0.00 0.00 59 1017.6
20260905160051 57 326 0.0 2.0 0.00 0.00 0.00 59 1017.6
20260905154557 56 0 0.0 2.0 0.00 0.00 0.00 64 1017.7
20260905153051 53 0 0.0 0.0 0.00 0.00 0.00 66 1017.7
20260905151558 51 0 0.0 0.0 0.00 0.00 0.00 69 1017.7
20260905150100 48 0 0.0 2.0 0.00 0.00 0.00 74 1017.8
20260905144554 46 0 0.0 0.0 0.00 0.00 0.00 78 1017.8
20260905143100 45 0 0.0 1.0 0.00 0.00 0.00 77 1017.8
20260905141553 44 0 0.0 2.0 0.00 0.00 0.00 79 1017.6
20260905134600 44 0 0.0 3.0 0.00 0.00 0.00 79 1017.3
20260905133055 45 0 0.0 5.0 0.00 0.00 0.00 77 1017.2
20260905131555 46 0 0.0 0.0 0.00 0.00 0.00 75 1017.0
20260905130056 46 0 0.0 6.0 0.00 0.00 0.00 76 1016.9
20260905124556 45 0 0.0 3.0 0.00 0.00 0.00 76 1016.8
20260905123056 45 297 0.0 7.0 0.00 0.00 0.00 76 1016.9
20260905121550 44 0 0.0 7.0 0.00 0.00 0.00 78 1016.7
20260905120049 44 0 0.0 3.0 0.00 0.00 0.00 77 1017.0
20260905114555 45 0 0.0 2.0 0.00 0.00 0.00 76 1016.8
20260905113048 46 260 0.0 7.0 0.00 0.00 0.00 75 1016.8
20260905111640 45 0 0.0 8.0 0.00 0.00 0.00 76 1016.9
20260905110045 46 150 0.0 6.0 0.00 0.00 0.00 73 1016.9
20260905104550 47 0 0.0 3.0 0.00 0.00 0.00 73 1016.7
20260905103049 47 0 0.0 3.0 0.00 0.00 0.00 72 1016.7
20260905101556 48 0 0.0 4.0 0.00 0.00 0.00 71 1016.8
20260905100108 49 0 0.0 3.0 0.00 0.00 0.00 70 1016.9
20260905094556 49 346 0.0 3.0 0.00 0.00 0.00 69 1017.0
20260905093053 49 18 0.0 4.0 0.00 0.00 0.00 69 1016.8
20260905091547 50 0 0.0 2.0 0.00 0.00 0.00 66 1017.0
20260905090050 52 0 0.0 0.0 0.00 0.00 0.00 64 1016.7
20260905084551 54 0 0.0 1.0 0.00 0.00 0.00 62 1016.9
20260905083046 52 0 0.0 2.0 0.00 0.00 0.00 64 1016.8
20260905081604 52 0 1.0 6.0 0.00 0.00 0.00 64 1017.0
20260905080059 52 0 0.0 4.0 0.00 0.00 0.00 64 1016.9
20260905074548 52 0 0.0 0.0 0.00 0.00 0.00 64 1017.1
20260905073050 52 0 0.0 7.0 0.00 0.00 0.00 61 1016.7
20260905071547 52 211 0.0 4.0 0.00 0.00 0.00 62 1016.8
20260905070100 52 0 0.0 2.0 0.00 0.00 0.00 63 1016.9
20260905064550 52 0 0.0 4.0 0.00 0.00 0.00 64 1016.7
20260905063059 52 0 0.0 0.0 0.00 0.00 0.00 63 1016.7
20260905061611 54 0 0.0 0.0 0.00 0.00 0.00 61 1016.5
20260905060100 55 0 0.0 1.0 0.00 0.00 0.00 59 1016.3
20260905054551 55 0 0.0 2.0 0.00 0.00 0.00 60 1016.3
20260905053058 55 0 0.0 3.0 0.00 0.00 0.00 60 1016.1
20260905051554 55 0 0.0 6.0 0.00 0.00 0.00 58 1015.8
20260905044600 57 0 0.0 3.0 0.00 0.00 0.00 55 1015.7
20260905043048 57 294 4.0 9.0 0.00 0.00 0.00 55 1015.6
20260905041551 58 271 1.0 6.0 0.00 0.00 0.00 53 1015.7
20260905040052 57 0 0.0 10.0 0.00 0.00 0.00 54 1015.6
20260905034548 57 0 0.0 4.0 0.00 0.00 0.00 55 1015.5
20260905033048 58 223 1.0 4.0 0.00 0.00 0.00 55 1015.5